Voltar ao catálogo

FENGYUN 1C DEB

AtivoSSO
NORAD 31158·DEBRIS·🇨🇳 China

Lançado May 10, 1999 de Taiyuan Satellite Launch Center

Loading…

Próximas Passagens (próximas 24 horas)

TLE

AtualizadoSource: Space-Track

Época: Sep 13, 2026, 12:11 UTC

1 31158U 99025BHL 26256.50829241  .00002189  00000-0  76931-3 0  9994
2 31158  98.7695 344.3259 0044564 304.2942  55.4028 14.35432842684199

Acompanhe FENGYUN 1C DEB em tempo real com AllMySat

Download on the App Store